SCP
0 0 0 0 0 0 0 0 0 0 0 0 0 0 0 0 0 0 0 0 0 0 0 0 0 0 0 0 0 0 0 0 0 0 0 0 0 0
0 0 0 0 0 0 0 0 0 0 0 0 0 0 0 0 0 0 0 0 0 -0 -0 -0 -0 -0 0 0 0 0 0 0 0 0 0 0 0 0
0 0 0 0 0 0 0 0 0 0 0 0 0 0 0 0 0 0 0 0 0 -0 -0 -0 -0 -0 -0 0 0 0 0 0 0 0 0 0 0 0
0 0 0 0 0 0 0 0 0 0 0 0 0 0 0 0 0 0 0 0 0 -0 -0 -0 -0 -0 -0 0 0 0 0 0 0 0 0 0 0 -0
0 -0 0 -0 -0 -0 0 0 0 0 0 0 0 0 0 0 0 0 0 0 0 -0 -0 -0 -0 0 -0 -0 0 0 0 0 0 0 0 -0 -0 0
0 0 0 0 0 0 0 0 0 0 0 0 0 0 0 0 0 0 0 0 0 0 0 0 0 -0 -0 0 -0 0 -0 -0 0 0 0 0 0 0
0 0 0 0 0 0 0 0 0 0 0 0 0 0 0 0 0 0 0 0 0 0 0 0 0 0 0 0 0 0 0 -0 0 0 0 0 0 0
0 0 0 0 0 -0 -0 -0 0 0 0 0 0 0 0 0 0 0 0 0 0 0 0 0 0 0 0 0 0 0 0 -0 -0 -0 0 0 0 0
0 0 0 0 0 0 0 -0 0 0 0 0 0 0 0 0 0 0 0 0 0 0 0 0 0 0 0 0 0 0 -0 -0 0 0 0 0 0 0
0 0 0 0 0 0 0 0 0 0 0 0 0 0 -0 -0 -0 -0 0 0 0 0 0 0 0 -0 -0 -0 -0 -0 -0 -0 0 0 0 0 0 0
0 0 0 0 0 0 -0 -0 -0 0 -0 -0 -0 -0 -0 -0 -0 -0 -0 -0 -0 0 0 0 0 0 0 0 0 -0 -0 -0 -0 0 -0 -0 -0 -0
0 0 0 0 -0 -0 0 -0 -0 -0 0 0 -0 -0 -0 -0 0 -0 -0 0 -0 0 0 0 0 0 0 0 0 0 -0 -0 0 0 -0 -0 0 -0
0 0 0 0 0 -0 -0 -0 -0 -0 -0 -0 -0 0 0 0 0 0 0 0 0 0 0 0 -0 0 0 0 0 0 0 -0 -0 0 -0 -0 -0 -0
0 0 0 0 0 0 -0 -0 0 0 0 0 -0 -0 -0 -0 -0 -0 0 0 0 0 -0 0 -0 0 0 -0 0 -0 0 0 -0 -0 -0 -0 0 -0
0 0 0 0 0 0 0 0 0 0 0 0 -0 -0 -0 -0 -0 0 -0 -0 0 0 -0 0 0 0 0 0 0 0 -0 -0 0 0 -0 -0 -0 -0
0 0 0 0 0 0 0 0 0 0 0 0 0 0 0 0 -0 0 -0 -0 0 -0 0 -0 0 0 0 0 0 0 0 0 0 0 0 0 0 0
0 0 0 0 0 0 0 0 0 0 0 0 0 0 0 -0 -0 -0 -0 -0 -0 -0 0 0 0 0 0 0 0 -0 -0 -0 0 0 0 0 0 0
0 0 0 0 0 0 0 0 0 0 0 0 0 -0 0 -0 -0 0 0 0 0 0 0 0 0 0 0 0 0 0 0 0 0 0 0 0 0 0
0 0 0 0 0 0 0 0 0 0 0 0 0 0 0 -0 0 0 0 0 0 0 0 0 0 0 0 0 0 0 0 0 0 0 0 0 0 0
0 0 0 0 0 0 0 0 0 0 -0 0 0 0 -0 0 0 0 0 0 0 0 0 0 0 0 0 0 0 0 0 0 0 0 0 0 0 0
0 0 0 0 0 -0 -0 0 -0 0 -0 -0 0 0 0 0 0 0 0 0 0 0 0 0 0 0 0 0 0 0 0 0 0 0 0 0 0 0
0 0 0 0 -0 0 0 0 0 0 0 0 0 0 0 0 0 0 0 0 0 0 0 0 0 0 0 0 0 0 0 0 0 0 0 0 0 0
0 0 0 0 0 0 0 0 0 0 0 0 0 0 0 0 0 0 0 0 0 0 0 0 0 0 0 0 0 0 0 0 0 0 0 0 0 0
Wind_Speed_500mb
37 36 33 32 37 35 42 39 34 21 28 35 21 20 17 13 16 12 18 10 20 17 22 26 30 31 37 43 45 42 39 39 21 17 16 15 9 3
26 27 29 25 27 35 28 36 40 31 26 32 29 35 25 30 27 24 24 30 33 36 38 41 42 43 43 42 40 35 35 36 22 19 18 12 10 11
27 25 26 26 23 16 21 31 29 37 41 14 34 48 35 43 36 28 24 27 30 32 33 38 37 38 36 34 38 35 31 29 25 20 19 17 13 11
14 21 16 14 16 18 16 19 25 34 32 20 46 47 34 36 38 31 34 29 29 31 30 33 36 32 27 27 26 24 25 24 26 22 19 14 13 11
17 21 19 21 24 21 24 24 24 27 26 47 54 48 41 44 45 44 42 44 42 38 38 35 32 36 29 29 26 26 25 26 22 18 18 16 13 10
20 20 23 27 27 26 30 27 25 24 33 53 54 49 45 46 48 51 52 46 49 42 41 40 39 38 35 31 29 29 28 28 25 22 20 20 18 20
22 19 16 16 7 16 25 26 33 41 45 46 57 52 47 43 54 57 59 55 53 45 46 43 39 41 41 40 35 35 33 31 26 25 24 23 22 21
20 13 14 10 10 26 29 23 25 34 48 60 58 59 54 58 59 62 61 58 50 39 44 45 39 42 39 37 33 32 31 32 30 29 25 22 21 22
23 22 27 39 41 32 27 19 30 33 34 37 52 51 60 56 53 52 51 36 42 39 38 47 39 44 40 36 31 30 31 30 26 24 23 22 20 19
21 26 35 28 28 29 27 37 38 33 46 42 50 59 58 53 50 46 50 51 40 35 31 41 37 44 40 37 32 30 28 24 24 24 26 27 25 23
19 23 30 31 32 35 47 54 47 55 59 58 60 59 55 50 46 50 39 37 35 27 28 32 30 35 32 33 39 34 31 29 28 26 28 29 31 29
18 21 27 29 30 28 41 54 59 49 43 46 44 47 45 38 38 35 34 30 35 26 24 28 29 26 31 28 30 30 34 33 30 30 31 31 32 26
22 23 24 26 27 29 34 50 51 51 46 48 47 43 41 29 31 31 29 29 18 25 30 18 18 17 26 31 27 30 32 33 34 36 36 36 36 34
28 26 23 22 27 35 39 39 42 45 53 44 45 43 32 22 32 31 28 25 26 30 26 19 28 31 35 32 29 29 34 33 33 39 41 42 45 46
32 27 27 30 34 39 42 44 42 42 48 47 43 35 32 30 35 39 33 34 34 34 30 30 33 31 29 32 30 25 26 30 32 32 31 33 38 30
35 38 42 44 45 44 41 40 40 37 41 42 39 28 26 35 43 39 36 31 28 32 33 36 36 33 33 30 28 24 17 13 18 19 24 26 28 30
33 36 35 36 38 35 33 33 33 34 38 39 32 26 38 45 43 33 30 27 27 28 30 31 31 27 27 25 20 18 19 17 14 13 14 10 12 16
32 33 34 33 36 37 36 38 39 38 36 34 34 40 47 34 30 28 22 26 27 26 28 26 25 21 18 16 15 10 10 9 11 13 9 8 7 9
30 29 32 31 32 36 37 39 37 38 34 37 43 42 31 35 29 26 25 27 30 29 27 24 19 13 11 15 11 11 9 8 9 7 5 5 5 8
23 23 23 28 30 29 29 33 37 38 33 42 38 31 31 31 30 27 29 30 28 24 21 16 14 14 12 16 16 17 20 16 14 12 8 6 7 10
25 24 24 24 26 28 28 30 42 46 38 31 29 30 31 31 30 28 28 27 23 18 14 13 15 17 19 22 21 18 18 18 16 9 4 6 7 8
25 24 24 22 27 30 30 44 42 37 31 28 29 30 32 33 33 31 28 25 23 23 24 28 29 26 18 17 17 11 6 4 8 10 11 10 8 7
25 19 18 23 29 33 35 33 32 31 30 30 29 29 28 27 23 21 20 19 20 23 23 22 20 17 13 9 7 4 2 5 5 7 10 12 12 14
Wind_Direction_500mb
287 286 276 271 270 263 251 246 235 231 243 233 183 180 173 164 163 154 156 138 155 139 149 146 145 139 141 146 145 146 149 138 147 167 164 200 186 126
293 287 283 277 278 258 252 238 242 225 242 213 177 172 174 169 154 137 141 146 140 147 147 141 136 133 133 131 134 142 146 143 161 163 163 145 151 154
298 290 292 273 271 259 246 228 230 209 231 214 167 165 176 165 157 147 136 133 133 140 139 131 134 136 138 138 139 142 139 140 146 142 147 149 150 147
306 314 314 271 251 251 253 223 220 215 224 215 156 153 176 164 151 145 132 130 128 118 120 120 123 119 115 117 118 121 127 131 143 155 147 150 163 160
321 311 304 294 278 254 237 232 224 219 203 183 157 153 153 150 142 134 129 125 118 113 110 108 109 103 101 102 106 118 126 128 133 142 137 134 130 124
322 311 297 288 275 257 248 221 223 205 186 168 158 151 152 153 142 131 120 116 111 109 105 100 101 105 109 107 113 112 115 119 118 117 116 109 109 106
329 324 313 325 280 277 201 188 199 190 192 182 155 149 146 150 139 129 125 119 108 107 104 101 94 97 101 106 106 103 105 104 102 103 102 105 102 101
13 52 57 344 53 131 136 151 166 179 176 167 155 154 154 156 142 130 119 116 106 106 106 100 98 96 100 103 105 107 103 100 100 101 100 99 99 95
50 53 62 91 81 105 105 125 165 161 161 173 169 164 151 142 130 129 126 126 118 114 105 98 98 93 91 97 103 107 105 100 101 95 85 78 81 88
63 64 67 85 92 101 129 134 136 143 127 128 134 133 131 135 132 133 131 122 114 112 102 98 92 88 85 89 100 108 108 100 92 88 83 73 73 82
81 72 81 90 105 97 102 115 114 129 128 141 139 137 137 137 141 139 124 120 111 110 110 105 103 98 88 84 90 93 96 94 92 89 83 74 75 84
93 90 94 96 105 111 110 119 118 120 134 137 134 139 139 138 143 136 126 119 118 108 119 114 119 101 87 82 90 89 89 90 89 87 83 79 81 87
110 106 100 107 115 119 126 128 122 130 132 140 139 145 149 136 141 138 119 104 98 112 124 114 123 109 117 109 92 93 94 91 88 86 83 79 76 79
116 116 111 105 119 134 143 128 134 137 137 137 138 136 136 122 133 144 124 99 112 111 100 108 118 121 118 114 102 94 93 92 92 89 85 82 79 75
106 93 100 113 117 127 141 140 136 140 147 145 154 142 145 147 144 137 129 127 108 98 98 108 114 113 112 106 105 106 97 91 94 93 95 92 85 82
94 100 104 103 102 111 131 143 145 148 149 146 145 143 136 126 135 130 132 128 110 105 105 116 113 109 107 101 97 98 104 115 114 105 97 89 80 73
103 110 110 110 113 115 125 133 140 143 144 142 144 141 138 129 136 136 141 136 122 119 118 121 122 117 110 101 98 97 97 101 116 123 101 87 76 63
108 108 113 113 113 112 119 126 132 138 146 148 130 131 127 134 136 137 134 123 124 126 132 134 129 122 107 92 109 109 111 113 107 105 114 101 63 20
113 106 108 118 120 115 120 129 138 131 129 127 124 129 127 137 126 128 129 133 129 123 125 133 134 130 114 95 88 99 109 128 145 130 133 99 77 22
112 106 107 116 116 117 120 124 133 140 134 135 130 129 131 130 127 123 128 134 134 135 136 138 129 120 103 98 102 93 100 115 115 115 100 60 26 12
111 112 112 117 127 134 125 121 126 129 125 127 124 125 128 129 125 125 131 132 127 125 133 150 168 149 126 119 109 105 104 96 92 98 45 29 14 11
99 109 113 113 122 128 127 128 124 122 123 124 126 128 127 125 122 120 121 118 114 111 114 113 119 127 128 124 116 106 85 31 8 352 345 335 317 342
90 92 107 120 127 129 131 132 129 125 123 124 126 131 132 133 131 130 131 131 130 128 123 120 120 122 132 132 127 102 353 356 338 330 325 342 313 308
Wind_Speed_850mb
37 36 33 32 37 35 42 39 34 21 28 35 21 20 17 13 16 12 18 10 20 17 22 26 30 31 37 43 45 42 39 39 21 17 16 15 9 3
26 27 29 25 27 35 28 36 40 31 26 32 29 35 25 30 27 24 24 30 33 36 38 41 42 43 43 42 40 35 35 36 22 19 18 12 10 11
27 25 26 26 23 16 21 31 29 37 41 14 34 48 35 43 36 28 24 27 30 32 33 38 37 38 36 34 38 35 31 29 25 20 19 17 13 11
14 21 16 14 16 18 16 19 25 34 32 20 46 47 34 36 38 31 34 29 29 31 30 33 36 32 27 27 26 24 25 24 26 22 19 14 13 11
17 21 19 21 24 21 24 24 24 27 26 47 54 48 41 44 45 44 42 44 42 38 38 35 32 36 29 29 26 26 25 26 22 18 18 16 13 10
20 20 23 27 27 26 30 27 25 24 33 53 54 49 45 46 48 51 52 46 49 42 41 40 39 38 35 31 29 29 28 28 25 22 20 20 18 20
22 19 16 16 7 16 25 26 33 41 45 46 57 52 47 43 54 57 59 55 53 45 46 43 39 41 41 40 35 35 33 31 26 25 24 23 22 21
20 13 14 10 10 26 29 23 25 34 48 60 58 59 54 58 59 62 61 58 50 39 44 45 39 42 39 37 33 32 31 32 30 29 25 22 21 22
23 22 27 39 41 32 27 19 30 33 34 37 52 51 60 56 53 52 51 36 42 39 38 47 39 44 40 36 31 30 31 30 26 24 23 22 20 19
21 26 35 28 28 29 27 37 38 33 46 42 50 59 58 53 50 46 50 51 40 35 31 41 37 44 40 37 32 30 28 24 24 24 26 27 25 23
19 23 30 31 32 35 47 54 47 55 59 58 60 59 55 50 46 50 39 37 35 27 28 32 30 35 32 33 39 34 31 29 28 26 28 29 31 29
18 21 27 29 30 28 41 54 59 49 43 46 44 47 45 38 38 35 34 30 35 26 24 28 29 26 31 28 30 30 34 33 30 30 31 31 32 26
22 23 24 26 27 29 34 50 51 51 46 48 47 43 41 29 31 31 29 29 18 25 30 18 18 17 26 31 27 30 32 33 34 36 36 36 36 34
28 26 23 22 27 35 39 39 42 45 53 44 45 43 32 22 32 31 28 25 26 30 26 19 28 31 35 32 29 29 34 33 33 39 41 42 45 46
32 27 27 30 34 39 42 44 42 42 48 47 43 35 32 30 35 39 33 34 34 34 30 30 33 31 29 32 30 25 26 30 32 32 31 33 38 30
35 38 42 44 45 44 41 40 40 37 41 42 39 28 26 35 43 39 36 31 28 32 33 36 36 33 33 30 28 24 17 13 18 19 24 26 28 30
33 36 35 36 38 35 33 33 33 34 38 39 32 26 38 45 43 33 30 27 27 28 30 31 31 27 27 25 20 18 19 17 14 13 14 10 12 16
32 33 34 33 36 37 36 38 39 38 36 34 34 40 47 34 30 28 22 26 27 26 28 26 25 21 18 16 15 10 10 9 11 13 9 8 7 9
30 29 32 31 32 36 37 39 37 38 34 37 43 42 31 35 29 26 25 27 30 29 27 24 19 13 11 15 11 11 9 8 9 7 5 5 5 8
23 23 23 28 30 29 29 33 37 38 33 42 38 31 31 31 30 27 29 30 28 24 21 16 14 14 12 16 16 17 20 16 14 12 8 6 7 10
25 24 24 24 26 28 28 30 42 46 38 31 29 30 31 31 30 28 28 27 23 18 14 13 15 17 19 22 21 18 18 18 16 9 4 6 7 8
25 24 24 22 27 30 30 44 42 37 31 28 29 30 32 33 33 31 28 25 23 23 24 28 29 26 18 17 17 11 6 4 8 10 11 10 8 7
25 19 18 23 29 33 35 33 32 31 30 30 29 29 28 27 23 21 20 19 20 23 23 22 20 17 13 9 7 4 2 5 5 7 10 12 12 14
Wind_Direction_850mb
287 286 276 271 270 263 251 246 235 231 243 233 183 180 173 164 163 154 156 138 155 139 149 146 145 139 141 146 145 146 149 138 147 167 164 200 186 126
293 287 283 277 278 258 252 238 242 225 242 213 177 172 174 169 154 137 141 146 140 147 147 141 136 133 133 131 134 142 146 143 161 163 163 145 151 154
298 290 292 273 271 259 246 228 230 209 231 214 167 165 176 165 157 147 136 133 133 140 139 131 134 136 138 138 139 142 139 140 146 142 147 149 150 147
306 314 314 271 251 251 253 223 220 215 224 215 156 153 176 164 151 145 132 130 128 118 120 120 123 119 115 117 118 121 127 131 143 155 147 150 163 160
321 311 304 294 278 254 237 232 224 219 203 183 157 153 153 150 142 134 129 125 118 113 110 108 109 103 101 102 106 118 126 128 133 142 137 134 130 124
322 311 297 288 275 257 248 221 223 205 186 168 158 151 152 153 142 131 120 116 111 109 105 100 101 105 109 107 113 112 115 119 118 117 116 109 109 106
329 324 313 325 280 277 201 188 199 190 192 182 155 149 146 150 139 129 125 119 108 107 104 101 94 97 101 106 106 103 105 104 102 103 102 105 102 101
13 52 57 344 53 131 136 151 166 179 176 167 155 154 154 156 142 130 119 116 106 106 106 100 98 96 100 103 105 107 103 100 100 101 100 99 99 95
50 53 62 91 81 105 105 125 165 161 161 173 169 164 151 142 130 129 126 126 118 114 105 98 98 93 91 97 103 107 105 100 101 95 85 78 81 88
63 64 67 85 92 101 129 134 136 143 127 128 134 133 131 135 132 133 131 122 114 112 102 98 92 88 85 89 100 108 108 100 92 88 83 73 73 82
81 72 81 90 105 97 102 115 114 129 128 141 139 137 137 137 141 139 124 120 111 110 110 105 103 98 88 84 90 93 96 94 92 89 83 74 75 84
93 90 94 96 105 111 110 119 118 120 134 137 134 139 139 138 143 136 126 119 118 108 119 114 119 101 87 82 90 89 89 90 89 87 83 79 81 87
110 106 100 107 115 119 126 128 122 130 132 140 139 145 149 136 141 138 119 104 98 112 124 114 123 109 117 109 92 93 94 91 88 86 83 79 76 79
116 116 111 105 119 134 143 128 134 137 137 137 138 136 136 122 133 144 124 99 112 111 100 108 118 121 118 114 102 94 93 92 92 89 85 82 79 75
106 93 100 113 117 127 141 140 136 140 147 145 154 142 145 147 144 137 129 127 108 98 98 108 114 113 112 106 105 106 97 91 94 93 95 92 85 82
94 100 104 103 102 111 131 143 145 148 149 146 145 143 136 126 135 130 132 128 110 105 105 116 113 109 107 101 97 98 104 115 114 105 97 89 80 73
103 110 110 110 113 115 125 133 140 143 144 142 144 141 138 129 136 136 141 136 122 119 118 121 122 117 110 101 98 97 97 101 116 123 101 87 76 63
108 108 113 113 113 112 119 126 132 138 146 148 130 131 127 134 136 137 134 123 124 126 132 134 129 122 107 92 109 109 111 113 107 105 114 101 63 20
113 106 108 118 120 115 120 129 138 131 129 127 124 129 127 137 126 128 129 133 129 123 125 133 134 130 114 95 88 99 109 128 145 130 133 99 77 22
112 106 107 116 116 117 120 124 133 140 134 135 130 129 131 130 127 123 128 134 134 135 136 138 129 120 103 98 102 93 100 115 115 115 100 60 26 12
111 112 112 117 127 134 125 121 126 129 125 127 124 125 128 129 125 125 131 132 127 125 133 150 168 149 126 119 109 105 104 96 92 98 45 29 14 11
99 109 113 113 122 128 127 128 124 122 123 124 126 128 127 125 122 120 121 118 114 111 114 113 119 127 128 124 116 106 85 31 8 352 345 335 317 342
90 92 107 120 127 129 131 132 129 125 123 124 126 131 132 133 131 130 131 131 130 128 123 120 120 122 132 132 127 102 353 356 338 330 325 342 313 308